KZROInput File - 14103110/30/2014 4:54:59 PM
STimeDurCatCodeINENameArtist
00:01:0005:34110DA047711FThat's The WayLed Zeppelin
00:02:0001:01COMNG2896NBC TOH Net SpotCNN RADIO
00:05:0201:01COMNF2895NBC B SpotCNN RADIO
00:06:0006:00COMDALIVEI06:00 StopSet
00:06:0000:05COMVO109500FZLNR-STOPSETZ100FM
00:06:0001:00CADA102300FREDDING SUBARURedding Subaru
00:06:0000:38CADA568500FLILY'S RESTARUANTLily's Restaruant
00:06:0001:00CADA102400FBROOKS AUTOMOTIVEBrooks Complete Automotive
00:06:0000:34CADA563400FANDY'S TRANSMISSIONSAndy's Transmissions
00:06:0000:30CADA102800FNORTHLAND CABLE CO.Northland Communications
00:06:0000:59COMVO289600NET SPOT A
00:06:0001:00COMDA101200FWKDYSHOPRNITEZ100FM Promo
00:06:0000:10COMVO100100FPM LNGBLK SWPZ100FM
00:10:0004:04105DA610325CHotel IllnessBlack Crowes
00:14:0003:29107DA236320CI Am MinePearl Jam
00:18:0000:15COMVO110200FZ-PM TransitionZ100FM
00:19:0003:53109DA038428FAnywhere But HereRaging Slab
00:23:0004:19107DA926611FJohnny B. GoodeJudas Priest
00:26:0000:15COMVO110200FZ-PM TransitionZ100FM
00:27:0004:37109DA031819FNo RegretsCochrane, Tom
00:30:0001:00COMNB2904CNN Net News 2CNN RADIO
00:31:0004:42106DA763916FBreaking The GirlRed Hot Chili Peppers
00:35:0006:00COMDALIVEI35:00 StopSet
00:35:0000:05COMVO109500FZLNR-STOPSETZ100FM
00:35:0000:59COMDA290400NBC NEWS 1:00
00:35:0000:35CADA102100FSTATE FARM INSURANCERuss Porterfield Insurance
00:35:0000:40CADA104400FHEADWATER'S HYDROPONICSHeadwater's Hydroponics
00:35:0000:59COMVO289500NET SPOT B
00:35:0000:14COMVO207700FFALL TIMEZ100fm Promo
00:40:0000:01COMVO112100FZ-WEATHERZChannel Radio
00:40:0000:29ATWEAX00CZ-WX
00:40:0001:00COMDA101200FWKDYSHOPRNITEZ100FM Promo
00:40:0000:10COMVO100100FPM LNGBLK SWPZ100FM
00:41:0014:48114DA016006FIt Better End Soon [Live] Tanglewood LenoxChicago
00:44:0000:15COMVO110200FZ-PM TransitionZ100FM
00:49:0004:09109DA037806FAngrySquier, Billy
00:52:0005:13112DA039608Hey Joe [Live Montery Pop]Hendrix, Jimi
*00:58:00COMVO107400F58:00 KZRO/CR Legal IDZ100FM
01:01:0004:34109DA042114FThat Don't Satisfy MeBrother Cane
01:02:0001:01COMNG2896NBC TOH Net SpotCNN RADIO
01:05:0201:01COMNF2895NBC B SpotCNN RADIO
01:06:0006:00COMDALIVEI06:00 StopSet
01:06:0000:05COMVO109500FZLNR-STOPSETZ100FM
01:06:0001:00CADA102000FTACO BELL/KFCTaco Bell/KFC
01:06:0000:60CADA102200FCOSCollege of the Siskiyous
01:06:0001:00CADA103800FTM ESCROW+NOTARYTM Escrow And Notary
01:06:0000:43CADA116500FEXPRESS EMPLOYMENT PROF.Express Employment Professionals
01:06:0000:37CADA103100MARUTI INDIAN RESTAURANTMaruti Indian Restaurant
01:06:0000:59COMVO289600NET SPOT A
01:06:0001:00COMDA101200FWKDYSHOPRNITEZ100FM Promo
01:06:0000:10COMVO100100FPM LNGBLK SWPZ100FM
01:10:0002:49112DA016418FSomebody Get Me A DoctorVan Halen
01:14:0005:13109DA025424FDirty LoveThunder
01:18:0000:15COMVO110200FZ-PM TransitionZ100FM
01:19:0003:56106DA758938CDon't Tread On MeMetallica
01:23:0004:29104DA308025CSmells Like Teen Spirit [Edit]Nirvana
01:26:0000:15COMVO110200FZ-PM TransitionZ100FM
01:30:0001:00COMNB2904CNN Net News 2CNN RADIO
01:31:0004:50109DA015118FForget Me NotBad English
01:31:0003:36104DA335422CWind Of ChangeScorpions
01:35:0006:00COMDALIVEI35:00 StopSet
01:35:0000:05COMVO109500FZLNR-STOPSETZ100FM
01:35:0000:59COMDA290400NBC NEWS 1:00
01:35:0000:30CADA104300FPAPA MURPHY'S PIZZAPapa Murphy's Pizza
01:35:0000:30CADA102700FRADD/DRUNK DRIVING PSAAd Council-RADD+RAB
01:35:0000:59COMVO289500NET SPOT B
01:40:0000:01COMVO112100FZ-WEATHERZChannel Radio
01:40:0000:29ATWEAX00CZ-WX
01:40:0001:00COMDA101200FWKDYSHOPRNITEZ100FM Promo
01:40:0000:10COMVO100100FPM LNGBLK SWPZ100FM
01:41:0006:45111DA018919F21st Century Schizoid ManKing Crimson
01:44:0004:04112DA006918FMakin' MagicPat Travers Band
01:48:0000:15COMVO110200FZ-PM TransitionZ100FM
01:49:0008:19105DA605359CAstronomy DominePink Floyd
01:52:0005:04106DA761341CRoad To NowhereOsbourne, Ozzy
*01:58:00COMVO107300F58:00 KZRO/CR Legal IDshortZ100FM
02:01:0004:03104DA300307FComing Of AgeDamn Yankees
02:02:0001:01COMNG2896NBC TOH Net SpotCNN RADIO
02:05:0201:01COMNF2895NBC B SpotCNN RADIO
02:06:0006:00COMDALIVEI06:00 StopSet
02:06:0000:05COMVO109500FZLNR-STOPSETZ100FM
02:06:0001:00CADA105000FELLIS BROOKS HONDAEllis Brooks Honda
02:06:0000:35CADA116900FTHE FIFTH SEASONThe Fifth Season
02:06:0001:00CADA104100FSISQ.COUNTY FIRE CHEIFSSisq. County Fire Cheifs
02:06:0001:00CADA103700FSAY CHEESE PIZZASay Cheese Pizza
02:06:0000:40CADA104400FHEADWATER'S HYDROPONICSHeadwater's Hydroponics
02:06:0000:59COMVO289600NET SPOT A
02:06:0001:00COMDA101200FWKDYSHOPRNITEZ100FM Promo
02:06:0000:10COMVO100100FPM LNGBLK SWPZ100FM
02:10:0002:44109DA036841FShe Got Me (when she got her dress on)Masters Of Reality
02:14:0004:19109DA011116FRound And RoundRatt
02:18:0000:15COMVO110200FZ-PM TransitionZ100FM
02:19:0003:42105DA514820CTie Your Mother DownQueen
02:23:0003:23109DA034300FFriendsSatriani, Joe
02:26:0000:15COMVO110200FZ-PM TransitionZ100FM
02:27:0004:48105DA625000CTrademarkJohnson, Eric
02:30:0001:00COMNB2904CNN Net News 2CNN RADIO
02:31:0005:06111DA020500ToadCream
02:35:0006:00COMDALIVEI35:00 StopSet
02:35:0000:05COMVO109500FZLNR-STOPSETZ100FM
02:35:0000:59COMDA290400NBC NEWS 1:00
02:35:0000:38CADA568500FLILY'S RESTARUANTLily's Restaruant
02:35:0000:30CADA102700FRADD/DRUNK DRIVING PSAAd Council-RADD+RAB
02:35:0000:59COMVO289500NET SPOT B
02:40:0000:01COMVO112100FZ-WEATHERZChannel Radio
02:40:0000:29ATWEAX00CZ-WX
02:40:0001:00COMDA101200FWKDYSHOPRNITEZ100FM Promo
02:40:0000:10COMVO100100FPM LNGBLK SWPZ100FM
02:41:0012:29110DA049102FBack Where It All Began [live]Allman Brothers, The
02:44:0000:15COMVO110200FZ-PM TransitionZ100FM
02:48:0007:57105DA645307CWalk On (Longer Walk)Boston
02:49:0002:45110DA051113FInto MoneyTrower, Robin
02:52:0002:47112DA017314FDumb LoveStone Temple Pilots
*02:58:00COMVO107400F58:00 KZRO/CR Legal IDZ100FM
03:01:0003:23109DA027908FTo Be With YouMr. Big
03:02:0001:01COMNG2896NBC TOH Net SpotCNN RADIO
03:05:0201:01COMNF2895NBC B SpotCNN RADIO
03:06:0006:00COMDALIVEI06:00 StopSet
03:06:0000:05COMVO109500FZLNR-STOPSETZ100FM
03:06:0000:44CADA509200FROUND TABLE BUFFETRound Table Buffet
03:06:0001:00CADA102300FREDDING SUBARURedding Subaru
03:06:0001:00CADA104100FSISQ.COUNTY FIRE CHEIFSSisq. County Fire Cheifs
03:06:0000:35CADA102100FSTATE FARM INSURANCERuss Porterfield Insurance
03:06:0000:45CADA106800FGREEN HEART COLLECTIVEGreen Heart Collective
03:06:0000:59COMVO289600NET SPOT A
03:06:0001:00COMDA101200FWKDYSHOPRNITEZ100FM Promo
03:06:0000:10COMVO100100FPM LNGBLK SWPZ100FM
03:10:0004:31105DA515229CI Drink AloneThorogood, George & The Destroyer
03:14:0003:38105DA515410FI Love It LoudKiss
03:18:0000:15COMVO110200FZ-PM TransitionZ100FM
03:19:0006:01112DA013674FFight To The FinishGamma
03:23:0004:31106DA752923FAngry ChairAlice In Chains
03:26:0000:15COMVO110200FZ-PM TransitionZ100FM
03:27:0002:34110DA037702FGoin' Back To BirminghamTen Years After
03:30:0001:00COMNB2904CNN Net News 2CNN RADIO
03:31:0002:56111DA022605FRoute '66Blue Cheer
03:35:0006:00COMDALIVEI35:00 StopSet
03:35:0000:05COMVO109500FZLNR-STOPSETZ100FM
03:35:0000:59COMDA290400NBC NEWS 1:00
03:35:0000:37CADA103100MARUTI INDIAN RESTAURANTMaruti Indian Restaurant
03:35:0000:30CADA102800FNORTHLAND CABLE CO.Northland Communications
03:35:0000:30CADA102700FRADD/DRUNK DRIVING PSAAd Council-RADD+RAB
03:35:0000:59COMVO289500NET SPOT B
03:35:0000:14COMVO207700FFALL TIMEZ100fm Promo
03:40:0000:01COMVO112100FZ-WEATHERZChannel Radio
03:40:0000:29ATWEAX00CZ-WX
03:40:0001:00COMDA101200FWKDYSHOPRNITEZ100FM Promo
03:40:0000:10COMVO100100FPM LNGBLK SWPZ100FM
03:41:0012:22112DA000253FChild In Time [live]Deep Purple
03:44:0000:15COMVO110200FZ-PM TransitionZ100FM
03:48:0006:31109DA012131FMarathonRush
03:49:0005:48105DA610079CFor Those about To Rock (We Salute You)AC/DC
03:52:0002:11104DA289702CBig Ten Inch RecordAerosmith
*03:58:00COMVO107300F58:00 KZRO/CR Legal IDshortZ100FM
04:01:0003:38105DA618341CFriendsLed Zeppelin
04:02:0001:01COMNG2896NBC TOH Net SpotCNN RADIO
04:05:0201:01COMNF2895NBC B SpotCNN RADIO
04:06:0006:00COMDALIVEI06:00 StopSet
04:06:0000:05COMVO109500FZLNR-STOPSETZ100FM
04:06:0000:35CADA116900FTHE FIFTH SEASONThe Fifth Season
04:06:0001:00CADA102000FTACO BELL/KFCTaco Bell/KFC
04:06:0001:00CADA102400FBROOKS AUTOMOTIVEBrooks Complete Automotive
04:06:0001:00CADA116100FFUN FACTORY RENTALSFun Factory Rentals
04:06:0000:59COMVO289600NET SPOT A
04:06:0001:00COMDA101200FWKDYSHOPRNITEZ100FM Promo
04:06:0000:10COMVO100100FPM LNGBLK SWPZ100FM
04:10:0005:35105DA624231CShe Talks To AngelsBlack Crowes
04:14:0005:13107DA886830FImmortalityPearl Jam
04:18:0000:15COMVO110200FZ-PM TransitionZ100FM
04:19:0003:36104DA288230CPride And JoyStevie Ray Vaughan
04:23:0005:52110DA042301FCrystal Ball [live]Styx
04:26:0000:15COMVO110200FZ-PM TransitionZ100FM
04:27:0004:10105DA575913CBeautiful DayU2
04:30:0001:00COMNB2904CNN Net News 2CNN RADIO
04:31:0004:44106DA764145CSoul To SqueezeRed Hot Chili Peppers
04:35:0006:00COMDALIVEI35:00 StopSet
04:35:0000:05COMVO109500FZLNR-STOPSETZ100FM
04:35:0000:59COMDA290400NBC NEWS 1:00
04:35:0000:30CADA104300FPAPA MURPHY'S PIZZAPapa Murphy's Pizza
04:35:0000:30CADA116000FMT.SHASTA VAPEMt. Shasta Vape
04:35:0000:59COMVO289500NET SPOT B
04:40:0000:01COMVO112100FZ-WEATHERZChannel Radio
04:40:0000:29ATWEAX00CZ-WX
04:40:0001:00COMDA101200FWKDYSHOPRNITEZ100FM Promo
04:40:0000:10COMVO100100FPM LNGBLK SWPZ100FM
04:41:0010:37111DA017500FA Quick One, While He's Away [Live]Who, The
04:44:0000:15COMVO110200FZ-PM TransitionZ100FM
04:48:0007:48114DA015810F Does Anybody Really KWTIS [Live] TanglewooChicago
04:57:0004:31109DA010500FBorn To Be My BabyBon Jovi
*04:58:00COMVO107400F58:00 KZRO/CR Legal IDZ100FM
05:01:0005:07109DA013738FFire WomanCult, The
05:02:0001:01COMNG2896NBC TOH Net SpotCNN RADIO
05:05:0201:01COMNF2895NBC B SpotCNN RADIO
05:06:0006:00COMDALIVEI06:00 StopSet
05:06:0000:05COMVO109500FZLNR-STOPSETZ100FM
05:06:0001:00CADA105000FELLIS BROOKS HONDAEllis Brooks Honda
05:06:0000:45CADA106800FGREEN HEART COLLECTIVEGreen Heart Collective
05:06:0000:60CADA102200FCOSCollege of the Siskiyous
05:06:0001:00CADA103700FSAY CHEESE PIZZASay Cheese Pizza
05:06:0000:30CADA116000FMT.SHASTA VAPEMt. Shasta Vape
05:06:0000:59COMVO289600NET SPOT A
05:06:0001:00COMDA101200FWKDYSHOPRNITEZ100FM Promo
05:06:0000:10COMVO100100FPM LNGBLK SWPZ100FM
05:10:0003:30106DA658810CLocked & LoadJackyl
05:14:0005:35109DA016873FI'm A BelieverGiant
05:18:0000:15COMVO110200FZ-PM TransitionZ100FM
05:19:0004:01109DA035419FNearly Lost YouScreaming Trees, The
05:23:0003:45112DA040839FHear My Train A 'Comin [Acoustic]Hendrix, Jimi
05:26:0000:15COMVO110200FZ-PM TransitionZ100FM
05:27:0004:29103DA246124CWhen It's LoveVan Halen
05:30:0001:00COMNB2904CNN Net News 2CNN RADIO
05:31:0004:12109DA040912FTwo Steps BehindDef Leppard
05:35:0006:00COMDALIVEI35:00 StopSet
05:35:0000:05COMVO109500FZLNR-STOPSETZ100FM
05:35:0000:59COMDA290400NBC NEWS 1:00
05:35:0000:34CADA563400FANDY'S TRANSMISSIONSAndy's Transmissions
05:35:0000:43CADA116500FEXPRESS EMPLOYMENT PROF.Express Employment Professionals
05:35:0000:59COMVO289500NET SPOT B
05:40:0000:01COMVO112100FZ-WEATHERZChannel Radio
05:40:0000:29ATWEAX00CZ-WX
05:40:0001:00COMDA101200FWKDYSHOPRNITEZ100FM Promo
05:40:0000:10COMVO100100FPM LNGBLK SWPZ100FM
05:41:0004:35110DA040222FBlue Jean BluesZZ Top
05:44:0005:20106DA764362FThe ZooScorpions, The
05:48:0000:15COMVO110200FZ-PM TransitionZ100FM
05:49:0006:26105DA503900FYour Move/All Good PeopleYes
05:52:0004:07105DA508112CRollin' StonedGreat White
05:57:0004:12109DA018230FThe Deeper The LoveWhitesnake
*05:58:00COMVO107300F58:00 KZRO/Legal ID CLSXZ100FM
06:01:0004:07103DA214112FWordsMissing Persons
06:02:0001:01COMNG2896NBC TOH Net SpotCNN RADIO
06:02:0003:57106DA773816FShakedownSeger, Bob & The Silver Bullet Ba
06:04:00FRIJU0604
06:05:0201:01COMNF2895NBC B SpotCNN RADIO
06:06:0006:00COMDALIVEI06:00 StopSet
06:06:0001:00CADA102000FTACO BELL/KFCTaco Bell/KFC
06:06:0001:00CADA102300FREDDING SUBARURedding Subaru
06:06:0001:00CADA103800FTM ESCROW+NOTARYTM Escrow And Notary
06:06:0000:35CADA102100FSTATE FARM INSURANCERuss Porterfield Insurance
06:06:0000:38CADA568500FLILY'S RESTARUANTLily's Restaruant
06:06:0000:59COMVO289600NET SPOT A
06:06:0001:00COMDA101000FWKDYSHO PROMOZ100FM
06:06:0000:32COMVO107600FDMD+PS SWPRZ100FM Bumper
06:13:0003:04105DA591516FHeadknockerForeigner
06:16:0002:48104DA408200FFanfare For The Common ManEmerson, Lake & Palmer
06:19:0000:03COMVO221700FTGIF JingleZ100fm Jingle
06:20:0003:20105DA495426FSolid RockDire Straits
06:22:0002:55104DA436305CWasted On The WayCrosby, Stills & Nash
06:25:0003:17105DA623713FShe's My BabyTraveling Wilburys
06:28:0000:53COMVO100200FZ-Comedy Jolt1Z100FM Promo
06:29:0004:17106DA694712FThe VoiceMoody Blues, The
06:30:0001:00COMNB2904CNN Net News 2CNN RADIO
06:31:0004:07110DA044726FLord Is It MineSupertramp
06:33:00FRIJU0633
06:35:0006:00COMDALIVEI35:00 StopSet
06:35:0000:59COMDA290400NBC NEWS 1:00
06:36:0002:00COMDA111600FFMRS ALMANACOld Farmer's Almanac
06:38:0001:00CADA105000FELLIS BROOKS HONDAEllis Brooks Honda
06:38:0000:30CADA104300FPAPA MURPHY'S PIZZAPapa Murphy's Pizza
06:38:0000:59COMVO289500NET SPOT B
06:40:0000:30COMVO112000FZ-WEATHERZ100fm Weather
06:40:0000:29ATWEAX00CZ-WX
06:40:0001:00COMVO101000FWKDYSHO PROMOZ100FM
06:41:0008:13105DA506216CLike A HurricaneYoung, Neil
06:44:0000:03COMVO221700FTGIF JingleZ100fm Jingle
06:47:0002:41103DA223506FTake The Money And RunSteve Miller Band
06:48:0004:47106DA858517FHey NineteenSteely Dan
06:50:0005:08105DA621823FDon't Come Around Here No MorePetty, Tom & The Heartbreakers
06:53:0003:19105DA487409FElderberry WineElton John
*06:58:00COMVO107300F58:00 KZRO/Legal ID CLSXZ100FM
07:01:0003:49103DA233418FAll Along The WatchtowerJimi Hendrix
07:02:0001:01COMNG2896NBC TOH Net SpotCNN RADIO
07:02:0002:51102DA082208FWhere Were You When I Needed YouGrass Roots
07:04:00FRIJU0704
07:05:0201:01COMNF2895NBC B SpotCNN RADIO
07:06:0006:00COMDALIVEI06:00 StopSet
07:06:0000:05CADA570800F5TH SEASON/DCMXCAL OPENThe Fifth Season
07:06:0002:00COMDA111200FD.CLARK 7AMDick Clark
07:08:0000:35CADA116900FTHE FIFTH SEASONThe Fifth Season
07:08:0000:44CADA509200FROUND TABLE BUFFETRound Table Buffet
07:08:0001:00CADA104100FSISQ.COUNTY FIRE CHEIFSSisq. County Fire Cheifs
07:08:0000:59COMVO289600NET SPOT A
07:08:0001:00COMDA101000FWKDYSHO PROMOZ100FM
07:08:0000:32COMVO107600FDMD+PS SWPRZ100FM Bumper
07:13:0002:54103DA201206CNo Matter WhatBadfinger
07:16:0003:58102DA166921FAmerican WomanGuess Who, The
07:19:0000:03COMVO221700FTGIF JingleZ100fm Jingle
07:20:0001:56103DA192027FSo You Want to Be A Rock 'N' Roll StarByrds, The
07:22:0002:48101DA059300FDance To The MusicSly & The Family Stone
07:25:0002:10102DA081807CLook Through Any WindowHollies
07:28:0000:53COMVO100200FZ-Comedy Jolt1Z100FM Promo
07:29:0005:23102DA126322CPiano ManBilly Joel
07:30:0001:00COMNB2904CNN Net News 2CNN RADIO
07:31:0004:36103DA259921FSledgehammerPeter Gabriel
07:33:00FRIJU0733
07:35:0006:00COMDALIVEI35:00 StopSet
07:35:0000:04CADA550600FDECLERCK ENTERPRISESDeClerk Enterprises
07:35:0001:00COMDA111000FPRIMECOM 7AMPrime Comedy Cut
07:38:0001:00CADA102000FTACO BELL/KFCTaco Bell/KFC
07:38:0000:59COMDA290400NBC NEWS 1:00
07:39:0000:60CADA101900FCOSCollege of the Siskiyous
07:39:0000:37CADA103100MARUTI INDIAN RESTAURANTMaruti Indian Restaurant
07:39:0000:59COMVO289500NET SPOT B
07:39:0000:14COMVO207700FFALL TIMEZ100fm Promo
07:40:0000:13CADA573000FSHERLOCK MUSIC SHOPSherlock Music
07:40:0000:30COMVO112000FZ-WEATHERZ100fm Weather
07:40:0000:29ATWEAX00CZ-WX
07:40:0001:00COMVO101000FWKDYSHO PROMOZ100FM
07:41:0003:43109DA027415FGet A Leg UpMellencamp, John
07:44:0002:53103DA257714FNever Tear Us ApartINXS
07:47:0000:03COMVO221700FTGIF JingleZ100fm Jingle
07:48:0006:45106DA695925CMiracles [CD Version]Jefferson Starship
07:50:0004:48106DA702836FLamb Lies Down On BroadwayGenesis
07:53:0003:14104DA323211FDown UnderMen At Work
07:53:0004:16105DA500118CGo Down Gamblin'Blood, Sweat & Tears
*07:58:00COMVO107300F58:00 KZRO/Legal ID CLSXZ100FM
08:00:0004:59COMNC2900CNN TOH Net NewsCNN RADIO
08:01:0001:51102DA065400CFrom Me To YouBeatles
08:02:0003:57111DA004424FI Am The Walrus [Basic Track][Anthology]Beatles, The
08:04:00FRIJU0804
08:05:0201:01COMNF2895CNN B SpotCNN RADIO
08:06:0008:00COMDALIVEI06:00 StopSet
08:06:0000:04CADA498000FBROOKS/NBC 12P OPENBrooks Complete Auto
08:06:0004:59COMDA290000NBC NEWS 5:00
08:11:0001:00CADA102400FBROOKS AUTOMOTIVEBrooks Complete Automotive
08:11:0000:30CADA108600FROUND TABLE PIZZARound Table Pizza
08:11:0001:00CADA102300FREDDING SUBARURedding Subaru
08:11:0001:00COMDA101000FWKDYSHO PROMOZ100FM
08:11:0000:32COMVO107600FDMD+PS SWPRZ100FM Bumper
08:15:0002:29101DA020906FLady WillpowerGary Puckett & The Union Gap
08:17:0003:01110DA025623FAnyway You Want MeBread
08:19:0000:53COMVO100200FZ-Comedy Jolt1Z100FM Promo
08:20:0002:08108DA005800CBumble BoogieBumble Bee & The Stingers
08:22:0001:50108DA037300FHard Headed WomanPresley, Elvis
08:25:0001:17110DA014032CBookendsSimon & Garfunkel
08:28:00COMVO110300FZ CLSX SweeperZ100FM
08:29:0006:18112DA011111FJohn Barleycorn (Must Die)Traffic
08:30:0001:00COMNB2904CNN Net News 2CNN RADIO
08:31:0005:59103DA242212FShooting StarBad Company
08:33:00FRIJU0833
08:35:0006:00COMDALIVEI35:00 StopSet
08:35:0000:59COMDA290400NBC NEWS 1:00
08:35:0000:30CADA116000FMT.SHASTA VAPEMt. Shasta Vape
08:35:0000:30CADA102800FNORTHLAND CABLE CO.Northland Communications
08:35:0000:59COMVO289500NET SPOT B
08:40:0000:12CADA503300FBLACK BUTTE AUTO/WXBlack Butte Towing
08:40:0000:30COMVO112000FZ-WEATHERZ100fm Weather
08:40:0000:29ATWEAX00CZ-WX
08:40:0001:00COMVO101000FWKDYSHO PROMOZ100FM
08:41:0004:20104DA287758CLunatic FringeRed Rider
08:44:0002:46114DA023620FBig SkyKinks, The
08:47:0000:03COMVO221700FTGIF JingleZ100fm Jingle
08:48:0004:03110DA020721CMovin' InChicago
08:50:0003:25104DA269217FYou Make Lovin' FunFleetwood Mac
08:53:0003:02105DA493500CWe Are The ChampionsQueen
08:57:0004:06104DA302313FOne Step UpBruce Springsteen
08:57:0003:09109DA010815FWalk's Like A LadyJourney
*08:58:00COMVO107300F58:00 KZRO/Legal ID CLSXZ100FM
09:01:0003:32103DA194915FJumpin' Jack FlashRolling Stones, The
09:02:0001:01COMNG2896CNN TOH Net SpotCNN RADIO
09:02:0003:36101DA020420FPoor Side Of TownJohnny Rivers
09:04:00FRIJU0904
09:05:0201:01COMNF2895CNN B SpotCNN RADIO
09:06:0006:00COMDALIVEI06:00 StopSet
09:06:0000:43CADA116500FEXPRESS EMPLOYMENT PROF.Express Employment Professionals
09:06:0000:40CADA104400FHEADWATER'S HYDROPONICSHeadwater's Hydroponics
09:06:0000:44CADA509200FROUND TABLE BUFFETRound Table Buffet
09:06:0000:35CADA102100FSTATE FARM INSURANCERuss Porterfield Insurance
09:06:0001:00CADA104100FSISQ.COUNTY FIRE CHEIFSSisq. County Fire Cheifs
09:06:0000:59COMVO289600NET SPOT A
09:06:0001:00COMDA101000FWKDYSHO PROMOZ100FM
09:06:0000:32COMVO107600FDMD+PS SWPRZ100FM Bumper
09:06:5901:03COMNB2907CNN Health WatchCNN RADIO
09:13:0002:55110DA006611CGet It OnChase
09:16:0003:26110DA029008FYour LoveCryan' Shames, The
09:19:0000:03COMVO221700FTGIF JingleZ100fm Jingle
09:20:0001:58108DA004000FBlack SlacksJoe Bennett & The Sparkletones
09:22:0002:27108DA033208FWah WatusiOrlons, The
09:25:0002:07108DA033004CRunnin ScaredOrbison, Roy
09:28:0000:53COMVO100200FZ-Comedy Jolt1Z100FM Promo
09:29:0005:55105DA624820FThe Soul CagesSting
09:30:0001:00COMNB2904CNN Net News 2CNN RADIO
09:31:0005:26109DA001232FMandolin WindStewart, Rod
09:33:00FRIJU0933
09:35:0006:00COMDALIVEI35:00 StopSet
09:35:0000:59COMDA290400NBC NEWS 1:00
09:36:0000:35CADA116900FTHE FIFTH SEASONThe Fifth Season
09:36:0000:30CADA108600FROUND TABLE PIZZARound Table Pizza
09:36:0000:59COMVO289500NET SPOT B
09:40:0000:15CADA109900FSOUL CONNECTIONSSoul Connection
09:40:0000:30COMVO112000FZ-WEATHERZ100fm Weather
09:40:0000:29ATWEAX00CZ-WX
09:40:0001:00COMVO101000FWKDYSHO PROMOZ100FM
09:41:0004:33106DA779201FIn A Big CountryBig Country
09:44:0004:47103DA233517FStraight OnHeart
09:47:0000:03COMVO221700FTGIF JingleZ100fm Jingle
09:48:0004:06109DA011901FWhen Love Comes To TownU2
09:50:0006:15105DA608527CTo Cry You A SongJethro Tull
09:53:0004:21106DA697928FThat Girl Could SingJackson Browne
*09:58:00COMVO107300F58:00 KZRO/Legal ID CLSXZ100FM
10:00:0004:59COMNC2900CNN TOH Net NewsCNN RADIO
10:01:0001:50101DA037700FDo You Want To Know A SecretBeatles
10:02:0005:43104DA323415CWith A Little LuckMcCartney, Paul & Wings
10:04:00FRIJU1004
10:05:0201:01COMNF2895CNN B SpotCNN RADIO
10:06:0008:00COMDALIVEI06:00 StopSet
10:06:0000:04CADA573700FREDDING SUBARU/NBC-8AM-ORedding Subaru
10:06:0004:59COMDA290000NBC NEWS 5:00
10:11:0001:00CADA102300FREDDING SUBARURedding Subaru
10:11:0001:00CADA102400FBROOKS AUTOMOTIVEBrooks Complete Automotive
10:11:0001:00COMVO101000FWKDYSHO PROMOZ100FM
10:11:0000:02COMVO350100FMORE MUSICRLondon Sweeper
10:15:0002:32101DA028905FUp-Up And Away5th Dimension
10:17:0003:03102DA073406FBaby Don't GoSonny & Cher
10:19:0000:03COMVO221700FTGIF JingleZ100fm Jingle
10:20:0002:07102DA068300C(We're Gonna) Rock Around The ClockBill Haley & His Comets
10:22:0002:19102DA071010CLimbo RockChubby Checker
10:25:0002:38110DA030010FGuide For The Married ManTurtles, The
10:28:0000:53COMVO100200FZ-Comedy Jolt1Z100FM Promo
10:29:0002:26112DA339213FRide My LlamaYoung, Neil
10:30:0001:00COMNB2904CNN Net News 2CNN RADIO
10:32:0006:55103DA223946FRiders On The Storm [Remastered]Doors, The
10:35:0006:00COMDALIVEI35:00 StopSet
10:35:0000:05COMVO109500FZLNR-STOPSETZ100FM
10:35:0000:59COMDA290400NBC NEWS 1:00
10:36:0002:00COMDA111300FTECH SUPPORTBob McNell
10:36:0000:30CADA116000FMT.SHASTA VAPEMt. Shasta Vape
10:36:0000:30CADA102700FRADD/DRUNK DRIVING PSAAd Council-RADD+RAB
10:38:0000:59COMVO289500NET SPOT B
10:40:0000:14COMVO207700FFALL TIMEZ100fm Promo
10:40:0000:15CADA118000FDECLERCK ENTERPRISESTaco Bell WX
10:40:0000:30COMVO112000FZ-WEATHERZ100fm Weather
10:40:0000:29ATWEAX00CZ-WX
10:40:0001:00COMVO101000FWKDYSHO PROMOZ100FM
10:41:0003:24106DA714000CHocus PocusFocus
10:44:0004:30104DA346914CWe've Got Tonight [LP Version]Bob Seger & The SBB
10:47:0000:03COMVO221700FTGIF JingleZ100fm Jingle
10:48:0004:22106DA709530CRebel RebelDavid Bowie
10:50:0004:31107DA887220FSwingin' [Edit]Tom Petty & The Heartbreakers
10:53:0003:19112DA015505FLove Has Taken Its TollForeigner
10:57:0004:15105DA489115CWhere To Now St. PeterJohn, Elton
*10:58:00COMVO107300F58:00 KZRO/Legal ID CLSXZ100FM
11:01:0003:30102DA135628CEight Miles HighByrds
11:02:0001:01COMNG2896NBC TOH Net SpotCNN RADIO
11:03:0002:14103DA199000FAt The ZooSimon & Garfunkel
11:05:0201:01COMNF2895NBC B SpotCNN RADIO
11:06:0006:00COMDALIVEI06:00 StopSet
11:06:0000:05COMVO109500FZLNR-STOPSETZ100FM
11:06:0001:30COMVO111700FINDIE FILMSINDIE FILM MINUTE
11:08:0000:43CADA116500FEXPRESS EMPLOYMENT PROF.Express Employment Professionals
11:08:0001:00CADA102000FTACO BELL/KFCTaco Bell/KFC
11:08:0000:60CADA102200FCOSCollege of the Siskiyous
11:08:0000:59COMVO289600NET SPOT A
11:08:0001:00COMVO101000FWKDYSHO PROMOZ100FM
11:11:0002:13101DA051210CRed Rubber BallCyrkle
11:14:0003:37101DA047102FWill It Go Round In CirclesBilly Preston
11:17:0000:03COMVO221700FTGIF JingleZ100fm Jingle
11:18:0002:53108DA050900FBaby WorkoutWilson, Jackie
11:20:0002:04108DA048400CWalk-Don't RunVentures, The
11:24:0004:03112DA030209FRequiem For The MassesAssociation, The
11:27:0000:53COMVO100200FZ-Comedy Jolt1Z100FM Promo
11:28:0002:53112DA009109FPre-Road DownsCrosby, Stills and Nash
11:30:0001:00COMNB2904CNN Net News 2CNN RADIO
11:31:0007:07104DA325320FCaptian JackJoel, Billy
11:35:0006:00COMDALIVEI35:00 StopSet
11:35:0000:05COMVO109500FZLNR-STOPSETZ100FM
11:35:0000:59COMDA290400NBC NEWS 1:00
11:36:0001:00COMVO111100F60SEC CHECKUP60 Second Checkup
11:38:0000:37CADA103100MARUTI INDIAN RESTAURANTMaruti Indian Restaurant
11:38:0000:30CADA102700FRADD/DRUNK DRIVING PSAAd Council-RADD+RAB
11:38:0000:59COMVO289500NET SPOT B
11:40:0000:15CADA101600FFUR PURRSONS PET RST/WXFur Purrson's Pet Resort
11:40:0000:30COMVO112000FZ-WEATHERZ100fm Weather
11:40:0000:29ATWEAX00CZ-WX
11:40:0001:00COMVO101000FWKDYSHO PROMOZ100FM
11:41:0003:37103DA215004CShe Blinded Me With ScienceThomas Dolby
11:44:0003:54104DA321816FFantasy Girl.38 Special
11:47:0000:03COMVO221700FTGIF JingleZ100fm Jingle
11:48:0005:32105DA599410FIt Can HappenYes
11:50:0004:15104DA298307FHigh Time We WentJoe Cocker
11:54:0003:43114DA024803FThunderwingT. Rex/Marc Bolan
11:57:0003:15105DA608300CYour Cash Ain't Nothing But TrashSteve Miller Band
*11:58:00COMVO107300F58:00 KZRO/Legal ID CLSXZ100FM
12:00:0004:59COMNC2900CNN TOH Net NewsCNN RADIO
12:01:0002:29104DA318008FDifferent DrumLinda Ronstadt
12:03:0003:07107DA936920FWalking In The RainRonettes, The
12:05:0201:01COMNF2895CNN B SpotCNN RADIO
12:06:0008:00COMDALIVEI06:00 StopSet
12:06:0000:05COMVO109500FZLNR-STOPSETZ100FM
12:08:0000:04CADA498000FBROOKS/NBC 12P OPENBrooks Complete Auto
12:08:0004:59COMDA290000NBC NEWS 5:00
12:13:0001:00CADA102400FBROOKS AUTOMOTIVEBrooks Complete Automotive
12:13:0000:35CADA116900FTHE FIFTH SEASONThe Fifth Season
12:13:0001:00COMVO101000FWKDYSHO PROMOZ100FM
12:15:0002:49103DA204905FHungryPaul Revere & The Raiders
12:17:0002:53112DA034126FGotta Get Back To YouTommy James &/Shondells
12:19:0000:03COMVO221700FTGIF JingleZ100fm Jingle
12:20:0002:27102DA070105FChain GangSam Cooke
12:22:0002:02114DA027609FDon't Give It To HimPuckett, Gary + Union Gap
12:25:0003:13101DA008107FLove Will Keep Us TogetherCaptain & Tennille
12:28:0000:53COMVO100200FZ-Comedy Jolt1Z100FM Promo
12:29:0004:31106DA697605CCasey JonesGrateful Dead
12:30:0001:00COMNB2904CNN Net News 2CNN RADIO
12:32:0006:08111DA009824FSouthern California PurplesChicago
12:35:0006:00COMDALIVEI35:00 StopSet
12:35:0000:05COMVO109500FZLNR-STOPSETZ100FM
12:35:0000:59COMDA290400NBC NEWS 1:00
12:35:0000:30CADA108600FROUND TABLE PIZZARound Table Pizza
12:35:0000:30CADA116000FMT.SHASTA VAPEMt. Shasta Vape
12:36:0000:59COMVO289500NET SPOT B
12:40:0000:15CADA117500FBURGER EXPRESS/WXBurger Express
12:40:0000:30COMVO112000FZ-WEATHERZ100fm Weather
12:40:0000:29ATWEAX00CZ-WX
12:40:0001:00COMVO101000FWKDYSHO PROMOZ100FM
12:41:0003:16106DA768234CGoody Two ShoesAdam Ant
12:44:0003:15114DA022510FBroken ApartBottles, The
12:47:0000:03COMVO221700FTGIF JingleZ100fm Jingle
12:48:0008:31104DA298018FThe CoreEric Clapton
12:50:0003:22102DA103605CStraight From The HeartBryan Adams
12:54:0003:28107DA907512FKids In AmericaKim Wilde
12:57:0002:39103DA224900CMonday MorningFleetwood Mac
*12:58:00COMVO107300F58:00 KZRO/Legal ID CLSXZ100FM
13:01:0002:19101DA002319FGreen TambourineLemon Pipers
13:02:0001:01COMNG2896NBC TOH Net SpotCNN RADIO
13:03:0003:10108DA052402FIn The Year 2525Zager & Evans
13:05:0201:01COMNF2895NBC B SpotCNN RADIO
13:06:0006:00COMDALIVEI06:00 StopSet
13:06:0000:05COMVO109500FZLNR-STOPSETZ100FM
13:06:0000:07CADA490800FEXPRESS/OFA OPENExpress Employment Professionals
13:06:0002:00COMDA111600FO.F.ALMANACOld Farmer's Almanac
13:08:0000:43CADA116500FEXPRESS EMPLOYMENT PROF.Express Employment Professionals
13:08:0001:00CADA102300FREDDING SUBARURedding Subaru
13:08:0001:00CADA103700FSAY CHEESE PIZZASay Cheese Pizza
13:08:0000:59COMVO289600NET SPOT A
13:08:0001:00COMVO101000FWKDYSHO PROMOZ100FM
13:11:0002:19101DA017103CDo Wah Diddy DiddyManfred Mann
13:14:0002:28103DA194314CLittle GirlSyndicate Of Sound
13:17:0000:03COMVO221700FTGIF JingleZ100fm Jingle
13:18:0003:13102DA166423FJenny Take A Ride!Mitch Ryder & The Detroit Wheels
13:20:0002:10109DA003604FSunshineEdwards, Jonathan
13:24:0003:30103DA177322CThe Rubberband ManSpinners, The
13:27:0000:53COMVO100200FZ-Comedy Jolt1Z100FM Promo
13:28:0004:46109DA027819FShake Me UpLittle Feat
13:30:0001:00COMNB2904CNN Net News 2CNN RADIO
13:31:0006:23110DA038821CPrivate LifePretenders, The
13:35:0006:00COMDALIVEI35:00 StopSet
13:35:0000:05COMVO109500FZLNR-STOPSETZ100FM
13:35:0000:59COMDA290400NBC NEWS 1:00
13:35:0001:00CADA102400FBROOKS AUTOMOTIVEBrooks Complete Automotive
13:35:0000:59COMVO289500NET SPOT B
13:40:0000:15CADA104500FLAKE SHASTINA GOLF/WXLake Shastina Golf Resort
13:40:0000:30COMVO112000FZ-WEATHERZ100fm Weather
13:40:0000:29ATWEAX00CZ-WX
13:40:0001:00COMVO101000FWKDYSHO PROMOZ100FM
13:41:0003:33106DA706913FIn The CityJoe Walsh
13:44:0004:17105DA606283FJingoSantana
13:47:0000:03COMVO221700FTGIF JingleZ100fm Jingle
13:48:0011:27112DA021667FFeel The Benefit10cc
13:50:0005:16106DA691056FWhile You See A ChanceSteve Winwood
*13:58:00COMVO107300F58:00 KZRO/Legal ID CLSXZ100FM
14:00:0004:59COMNC2900CNN TOH Net NewsCNN RADIO
14:01:0002:51112DA020714FBaby I Love YouKim, Andy
14:03:0002:30102DA073200CThe Pied PiperCrispian St. Peters
14:05:0201:01COMNF2895CNN B SpotCNN RADIO
14:06:0008:00COMDALIVEI06:00 StopSet
14:06:0000:05COMVO109500FZLNR-STOPSETZ100FM
14:06:0004:59COMDA290000NBC NEWS 5:00
14:13:0000:38CADA568500FLILY'S RESTARUANTLily's Restaruant
14:13:0000:60CADA102200FCOSCollege of the Siskiyous
14:13:0001:00CADA105000FELLIS BROOKS HONDAEllis Brooks Honda
14:13:0001:00COMVO101000FWKDYSHO PROMOZ100FM
14:15:0001:58101DA056507FGimme Gimme Good Lovin'Crazy Elephant
14:17:0002:31101DA033511FBaby It's YouShirelles
14:19:0000:03COMVO221700FTGIF JingleZ100fm Jingle
14:20:0003:14101DA006531FHow LongAce
14:22:0002:32102DA086600FBe-Bop-A-LulaGene Vincent
14:25:0002:02102DA067514FBeechwood 4-5789Marvelettes
14:28:0000:53COMVO100200FZ-Comedy Jolt1Z100FM Promo
14:29:0006:15105DA644969FTake It BackPink Floyd
14:30:0001:00COMNB2904CNN Net News 2CNN RADIO
14:32:0005:12105DA486328FEven It UpHeart
14:35:0006:00COMDALIVEI35:00 StopSet
14:35:0000:05COMVO109500FZLNR-STOPSETZ100FM
14:35:0000:59COMDA290400NBC NEWS 1:00
14:35:0001:00CADA102300FREDDING SUBARURedding Subaru
14:35:0000:59COMVO289500NET SPOT B
14:40:0000:15CADA118000FDECLERCK ENTERPRISESTaco Bell WX
14:40:0000:30COMVO112000FZ-WEATHERZ100fm Weather
14:40:0000:29ATWEAX00CZ-WX
14:40:0001:00COMVO101000FWKDYSHO PROMOZ100FM
14:41:0003:43106DA772629FCarsNuman, Gary
14:44:0003:01114DA020714FNorth Star [Daryl Hall Vocals]Fripp, Robert
14:47:0000:03COMVO221700FTGIF JingleZ100fm Jingle
14:48:0005:25112DA339001FPowerfingerYoung, Neil
14:50:0003:47110DA034300FRock Steady [live]Bad Company Live
14:54:0003:27105DA493915FTreat Me RightBenatar, Pat
14:57:0003:22110DA036014FCan't Take ItCheap Trick
14:57:0003:37103DA237816FDouble VisionForeigner
*14:58:00COMVO107300F58:00 KZRO/Legal ID CLSXZ100FM
15:01:0002:37101DA048517FDay TripperBeatles
15:02:0001:01COMNG2896NBC TOH Net SpotCNN RADIO
15:03:0003:24109DA004600FWomanLennon, John
15:05:0201:01COMNF2895NBC B SpotCNN RADIO
15:06:0006:00COMDALIVEI06:00 StopSet
15:06:0000:05COMVO109500FZLNR-STOPSETZ100FM
15:06:0002:00COMDA111200FD.CLARK 3PMDick Clark
15:08:0000:40CADA104400FHEADWATER'S HYDROPONICSHeadwater's Hydroponics
15:08:0001:00CADA103700FSAY CHEESE PIZZASay Cheese Pizza
15:08:0000:34CADA563400FANDY'S TRANSMISSIONSAndy's Transmissions
15:08:0000:59COMVO289600NET SPOT A
15:08:0001:00COMVO101000FWKDYSHO PROMOZ100FM
15:11:0002:46103DA203100CHot Rod LincolnCommander Cody & His Lost Planet
15:11:0003:13110DA007011FWildfireMurphy, Michael
15:17:0000:03COMVO221700FTGIF JingleZ100fm Jingle
15:18:0002:23101DA039213FSuspicionTerry Stafford
15:20:0003:00110DA014812FI'm Waiting For The DayBeach Boys, The
15:24:0003:50110DA001223FLife Is A CarnivalBand, The
15:27:0000:53COMVO100200FZ-Comedy Jolt1Z100FM Promo
15:28:0003:46102DA170814CStill The OneOrleans
15:30:0001:00COMNB2904CNN Net News 2CNN RADIO
15:31:0005:38105DA485163CVoicesBallard, Russ
15:35:0006:00COMDALIVEI35:00 StopSet
15:35:0000:05COMVO109500FZLNR-STOPSETZ100FM
15:35:0000:59COMDA290400NBC NEWS 1:00
15:35:0001:00CADA105000FELLIS BROOKS HONDAEllis Brooks Honda
15:35:0001:00CADA102000FTACO BELL/KFCTaco Bell/KFC
15:35:0000:59COMVO289500NET SPOT B
15:40:0000:15CADA109900FSOUL CONNECTIONSSoul Connection
15:40:0000:30COMVO112000FZ-WEATHERZ100fm Weather
15:40:0000:29ATWEAX00CZ-WX
15:40:0001:00COMVO101000FWKDYSHO PROMOZ100FM
15:41:0003:57102DA095219CMy SharonaKnack
15:44:0002:38103DA259228FR.O.C.K. In The U.S.AJohn Mellencamp
15:47:0000:03COMVO221700FTGIF JingleZ100fm Jingle
15:48:0007:24105DA498262FWelcome To The MachinePink Floyd
15:50:0004:26106DA693021FSmall WorldHuey Lewis & The News
15:54:0004:57104DA297200CLet It RainEric Clapton
*15:58:00COMVO107300F58:00 KZRO/Legal ID CLSXZ100FM
16:01:0002:33101DA028007FSummer In The CityLovin' Spoonful
16:02:0001:01COMNG2896CNN TOH Net SpotsCNN RADIO
16:03:0002:34101DA014812CHave You Ever Seen The Rain?Creedance Clearwater Revival
16:05:0201:01COMNF2895CNN B SpotCNN RADIO
16:06:0008:00COMDALIVEI06:00 StopSet
16:06:0000:05COMVO109500FZLNR-STOPSETZ100FM
16:06:0000:05CADA486200FHOB OPEN/REDDING SUBARURedding Subaru
16:08:0005:00COMDA114900FHOBLUESHouse Of Blues
16:13:0001:00CADA102300FREDDING SUBARURedding Subaru
16:13:0001:00CADA104100FSISQ.COUNTY FIRE CHEIFSSisq. County Fire Cheifs
16:13:0000:59COMVO289600NET SPOT A
16:13:0001:00COMVO101000FWKDYSHO PROMOZ100FM
16:15:0002:28106DA691203CShapes Of Things To ComeYardbirds, The
16:17:0004:41103DA237100CFrankensteinEdgar Winter Group
16:20:0002:18101DA051609FMontego BayBobby Bloom
16:22:0003:56101DA053608FNa Na Hey Hey Kiss Him GoodbyeSteam
16:25:0005:38106DA856200FDiamonds On The Soles Of Her ShoesSimon, Paul
16:28:00COMVO110300FZ CLSX SweeperZ100FM
16:29:0003:51103DA224705FEvery Time I Think Of YouBabys, The
16:30:0001:00COMNB2904CNN Net News 2CNN RADIO
16:32:0003:09111DA014700FSupertwisterCamel
16:35:0006:00COMDALIVEI35:00 StopSet
16:35:0000:05COMVO109500FZLNR-STOPSETZ100FM
16:35:0000:59COMDA290400NBC NEWS 1:00
16:35:0000:35CADA116900FTHE FIFTH SEASONThe Fifth Season
16:35:0000:30CADA102800FNORTHLAND CABLE CO.Northland Communications
16:35:0000:59COMVO289500NET SPOT B
16:40:0000:14COMVO207700FFALL TIMEZ100fm Promo
16:40:0000:15CADA101600FFUR PURRSONS PET RST/WXFur Purrson's Pet Resort
16:40:0000:30COMVO112000FZ-WEATHERZ100fm Weather
16:40:0000:29ATWEAX00CZ-WX
16:40:0001:00COMVO101000FWKDYSHO PROMOZ100FM
16:41:0003:37107DA903813F(What's So Funny 'Bout) Peace, Love And UndElvis Costello & The Attractions
16:44:0004:51102DA095530CHead Over HeelsTears For Fears
16:47:00COMVO110300FZ CLSX SweeperZ100FM
16:48:0004:58109DA022419FSeven TurnsAllman Brothers Band, The
16:50:0001:00COMNB2903CNN Sport WatchCNN RADIO
16:50:0004:16109DA014223FRock This PlaceFabulous Thunderbirds, The
16:54:0004:00109DA009113FCommon GroundRhythm Corps
16:57:0002:01105DA614218CBaby Won't You Let Me Rock 'N Roll YouTen Years After
*16:58:00COMVO107300F58:00 KZRO/Legal ID CLSXZ100FM
17:00:0004:59COMNC2900CNN TOH Net NewsCNN RADIO
17:05:0201:01COMNF2895CNN B SpotCNN RADIO
17:06:0021:59523DA000100Live In Concert H1/T1
17:15:0002:00COMDALIVEI15:00 StopSet
17:25:0000:05COMVO101300FQUICK-ZZ100FM
17:25:0000:55CADA507800FSAY CHEESE PIZZASay Cheese Pizza
17:25:0001:00CADA105000FELLIS BROOKS HONDAEllis Brooks Honda
17:25:0000:30CADA102800FNORTHLAND CABLE CO.Northland Communications
17:25:0000:59COMDA289600NET SPOT A
17:25:0000:30COMVO109100FZ DAYTIME SWPZ-CHANNEL RADIO
17:27:0017:13523DA000200Live In Concert H1/T2
17:30:0001:00COMNB2904CNN Net News 2CNN RADIO
17:35:0001:00COMDALIVEI35:00 StopSet
17:40:0000:05COMVO101300FQUICK-ZZ100FM
17:40:0000:43CADA116500FEXPRESS EMPLOYMENT PROF.Express Employment Professionals
17:40:0000:35CADA102100FSTATE FARM INSURANCERuss Porterfield Insurance
17:40:0000:30COMVO109100FZ DAYTIME SWPZ-CHANNEL RADIO
17:40:0000:05COMVO101300FQUICK-ZZ100FM
17:40:0000:35CADA116900FTHE FIFTH SEASONThe Fifth Season
17:40:0000:34CADA563400FANDY'S TRANSMISSIONSAndy's Transmissions
17:40:0000:59COMDA290400NBC NEWS 1:00
17:40:0000:12CADA568800FMT.SHASTA PASTRYMt.Shasta Pastry
17:40:0000:30COMVO112000FZ-WEATHERZ100fm Weather
17:40:0000:29ATWEAX00CZ-WX
17:43:0013:30523DA000300Live In Concert H1/T3
18:00:00COMVO107300FKZRO/Legal ID CLSXZ100FM
18:01:0002:00COMDA111400FGTLO FRIDAYGet The Lead Out
18:02:0001:01COMNG2896NBC TOH Net SpotCNN RADIO
18:03:0000:04CADA550600FDECLERCK ENTERPRISESDeClerk Enterprises
18:03:0001:00COMDA111000FPRIMECOM 6PMPrime Comedy Cut
18:03:0001:00CADA102000FTACO BELL/KFCTaco Bell/KFC
18:03:0000:35CADA116900FTHE FIFTH SEASONThe Fifth Season
18:03:0001:00CADA105000FELLIS BROOKS HONDAEllis Brooks Honda
18:05:0001:00COMDA101200FWKDYSHOPRNITEZ100FM Promo
18:05:0201:01COMNF2895NBC B SpotCNN RADIO
18:06:0024:09523DA000400Live In Concert H2/T1
18:15:0002:00COMDALIVEI15:00 StopSet
18:25:0000:05COMVO101300FQUICK-ZZ100FM
18:25:0001:00CADA102400FBROOKS AUTOMOTIVEBrooks Complete Automotive
18:25:0000:37CADA103100MARUTI INDIAN RESTAURANTMaruti Indian Restaurant
18:25:0000:30COMVO109100FZ DAYTIME SWPZ-CHANNEL RADIO
18:27:0015:45523DA000500Live In Concert H2/T2
18:30:0001:00COMNB2904CNN Net News 2CNN RADIO
18:35:0001:00COMDALIVEI35:00 StopSet
18:40:0000:05COMVO101300FQUICK-ZZ100FM
18:40:0001:00CADA102300FREDDING SUBARURedding Subaru
18:40:0000:30CADA108600FROUND TABLE PIZZARound Table Pizza
18:40:0000:59COMDA290400NBC NEWS 1:00
18:40:0000:14COMVO207700FFALL TIMEZ100fm Promo
18:40:0000:15CADA109900FSOUL CONNECTIONSSoul Connection
18:40:0000:30COMVO112000FZ-WEATHERZ100fm Weather
18:40:0000:29ATWEAX00CZ-WX
18:43:0015:25523DA000600Live In Concert H2/T3
18:57:00COMVO107400FKZRO/CR Legal IDZ100FM
19:01:0046:08113DA013800FHalloween FX AZ-Halloween Trax
19:02:0001:01COMNG2896NBC TOH Net SpotCNN RADIO
19:05:0201:01COMNF2895NBC B SpotCNN RADIO
19:06:0006:00COMDALIVEI06:00 StopSet
19:30:0001:00COMNB2904CNN Net News 2CNN RADIO
19:33:00FRIJU1933
19:35:0006:00COMDALIVEI35:00 StopSet
19:35:0000:59COMDA290400NBC NEWS 1:00
19:40:0000:13CADA573000FSHERLOCK MUSIC SHOPSherlock Music
19:40:0000:01COMVO112100FZ-WEATHERZChannel Radio
19:40:0000:29ATWEAX00CZ-WX
19:40:0001:00COMDA101200FWKDYSHOPRNITEZ100FM Promo
19:40:0000:10COMVO100100FPM LNGBLK SWPZ100FM
19:41:0046:07113DA013900FHalloween FX BZ-Halloween Trax
*19:58:00COMVO107400F58:00 KZRO/CR Legal IDZ100FM
20:01:0005:44111DA008201FSunday Bloody Sunday [Live]U2
20:02:0001:01COMNG2896NBC TOH Net SpotCNN RADIO
20:05:0201:01COMNF2895NBC B SpotCNN RADIO
20:06:0006:00COMDALIVEI06:00 StopSet
20:06:0000:05COMVO109500FZLNR-STOPSETZ100FM
20:06:0000:44CADA509200FROUND TABLE BUFFETRound Table Buffet
20:06:0000:35CADA116900FTHE FIFTH SEASONThe Fifth Season
20:06:0001:00CADA105000FELLIS BROOKS HONDAEllis Brooks Honda
20:06:0001:00CADA102400FBROOKS AUTOMOTIVEBrooks Complete Automotive
20:06:0001:00CADA103700FSAY CHEESE PIZZASay Cheese Pizza
20:06:0000:59COMVO289600NET SPOT A
20:06:0001:00COMDA101200FWKDYSHOPRNITEZ100FM Promo
20:06:0000:10COMVO100100FPM LNGBLK SWPZ100FM
20:10:0005:03103DA222923FArmageddon ItDef Leppard
20:14:0004:03109DA029232FEverything About YouUgly Kid Joe
20:18:0000:15COMVO110200FZ-PM TransitionZ100FM
20:19:0004:14109DA037526FBroken Hearted SaviorBig Head Todd & The Monsters
20:23:0003:42109DA043217FAll Apologies (MTV)Nirvana
20:26:0000:15COMVO110200FZ-PM TransitionZ100FM
20:27:0003:29110DA050109FShame The DevilTrower, Robin
20:30:0001:00COMNB2904CNN Net News 2CNN RADIO
20:31:0003:54114DA028902FAC/DC-Queen We Will Rock YouMASHUP-Queen vs. AC/DC
20:35:0006:00COMDALIVEI35:00 StopSet
20:35:0000:05COMVO109500FZLNR-STOPSETZ100FM
20:35:0000:59COMDA290400NBC NEWS 1:00
20:35:0000:30CADA104300FPAPA MURPHY'S PIZZAPapa Murphy's Pizza
20:35:0000:45CADA106800FGREEN HEART COLLECTIVEGreen Heart Collective
20:35:0000:59COMVO289500NET SPOT B
20:40:0000:15CADA118000FDECLERCK ENTERPRISESTaco Bell WX
20:40:0000:01COMVO112100FZ-WEATHERZChannel Radio
20:40:0000:29ATWEAX00CZ-WX
20:40:0001:00COMDA101200FWKDYSHOPRNITEZ100FM Promo
20:40:0000:10COMVO100100FPM LNGBLK SWPZ100FM
20:41:0005:54104DA291619CNo One To Run WithAllman Brothers Band, The
20:44:0007:22104DA283426CCall Me The BreezeLynyrd Skynyrd
20:48:0000:15COMVO110200FZ-PM TransitionZ100FM
20:49:0002:44112DA001413CI Come From The WaterToadies, The
20:52:0008:19114DA006200Fight To The Finish [LIVE]Gamma
*20:58:00COMVO107300F58:00 KZRO/CR Legal IDshortZ100FM
21:01:0003:50105DA614035FKeep Yourself AliveQueen
21:02:0001:01COMNG2896NBC TOH Net SpotCNN RADIO
21:05:0201:01COMNF2895NBC B SpotCNN RADIO
21:06:0006:00COMDALIVEI06:00 StopSet
21:06:0000:05COMVO109500FZLNR-STOPSETZ100FM
21:06:0000:34CADA563400FANDY'S TRANSMISSIONSAndy's Transmissions
21:06:0000:43CADA116500FEXPRESS EMPLOYMENT PROF.Express Employment Professionals
21:06:0001:00CADA104100FSISQ.COUNTY FIRE CHEIFSSisq. County Fire Cheifs
21:06:0001:00CADA102300FREDDING SUBARURedding Subaru
21:06:0000:45CADA106800FGREEN HEART COLLECTIVEGreen Heart Collective
21:06:0000:30CADA116000FMT.SHASTA VAPEMt. Shasta Vape
21:06:0000:59COMVO289600NET SPOT A
21:06:0001:00COMDA101200FWKDYSHOPRNITEZ100FM Promo
21:06:0000:10COMVO100100FPM LNGBLK SWPZ100FM
21:10:0004:21105DA623400FJealous AgainBlack Crowes, The
21:14:0004:24104DA279905FTom SawyerRush
21:18:0000:15COMVO110200FZ-PM TransitionZ100FM
21:19:0003:55109DA013600FAll Is ForgivenRed Siren
21:23:0004:06110DA046900CFluffBlack Sabbath
21:26:0000:15COMVO110200FZ-PM TransitionZ100FM
21:27:0003:31112DA000800COceanShaw. Tommy
21:30:0001:00COMNB2904CNN Net News 2CNN RADIO
21:31:0004:47109DA016517FComing HomeCinderella
21:35:0006:00COMDALIVEI35:00 StopSet
21:35:0000:05COMVO109500FZLNR-STOPSETZ100FM
21:35:0000:59COMDA290400NBC NEWS 1:00
21:35:0000:37CADA103100MARUTI INDIAN RESTAURANTMaruti Indian Restaurant
21:35:0000:40CADA104400FHEADWATER'S HYDROPONICSHeadwater's Hydroponics
21:35:0000:30CADA102700FRADD/DRUNK DRIVING PSAAd Council-RADD+RAB
21:35:0000:59COMVO289500NET SPOT B
21:35:0000:14COMVO207700FFALL TIMEZ100fm Promo
21:40:0000:15CADA118000FDECLERCK ENTERPRISESTaco Bell WX
21:40:0000:01COMVO112100FZ-WEATHERZChannel Radio
21:40:0000:29ATWEAX00CZ-WX
21:40:0001:00COMDA101200FWKDYSHOPRNITEZ100FM Promo
21:40:0000:10COMVO100100FPM LNGBLK SWPZ100FM
21:41:0012:08114DA015260FDo You Feel Like We Do [Live-Ventura TheateFrampton, Peter [Live]
21:48:0000:15COMVO110200FZ-PM TransitionZ100FM
21:49:0003:28105DA490511F30 Days In The HoleHumble Pie
21:52:0006:09112DA025100FJoe's GarageZappa, Frank
21:57:0003:25112DA008139FRunawayWishbone Ash
*21:58:00COMVO107300F58:00 KZRO/CR Legal IDshortZ100FM
22:01:0003:24114DA014215FHey Hey What Can I Do [Live At Greek]Page, Jimmy +/Black Crowes [Live]
22:02:0001:01COMNG2896NBC TOH Net SpotCNN RADIO
22:05:0201:01COMNF2895NBC B SpotCNN RADIO
22:06:0006:00COMDALIVEI06:00 StopSet
22:06:0000:05COMVO109500FZLNR-STOPSETZ100FM
22:06:0000:38CADA568500FLILY'S RESTARUANTLily's Restaruant
22:06:0000:43CADA116500FEXPRESS EMPLOYMENT PROF.Express Employment Professionals
22:06:0000:35CADA102100FSTATE FARM INSURANCERuss Porterfield Insurance
22:06:0001:00CADA105000FELLIS BROOKS HONDAEllis Brooks Honda
22:06:0000:40CADA104400FHEADWATER'S HYDROPONICSHeadwater's Hydroponics
22:06:0001:00CADA103700FSAY CHEESE PIZZASay Cheese Pizza
22:06:0000:59COMVO289600NET SPOT A
22:06:0001:00COMDA101200FWKDYSHOPRNITEZ100FM Promo
22:06:0000:10COMVO100100FPM LNGBLK SWPZ100FM
22:10:0003:35106DA766414CSex Type ThingStone Temple Pilots
22:14:0003:33109DA041806FIs There Any Love In Your HeartKravitz, Lenny
22:18:0000:15COMVO110200FZ-PM TransitionZ100FM
22:19:0005:17104DA325716FBad MedicineBon Jovi
22:23:0004:25105DA610414FCruel Little NumberJeff Jealey Band
22:26:0000:15COMVO110200FZ-PM TransitionZ100FM
22:27:0005:05112DA038730Home Sweet Home [Live]Vince Neil
22:30:0001:00COMNB2904CNN Net News 2CNN RADIO
22:31:0004:34106DA788114FRockin' In the Free WorldYoung, Neil
22:35:0006:00COMDALIVEI35:00 StopSet
22:35:0000:05COMVO109500FZLNR-STOPSETZ100FM
22:35:0000:59COMDA290400NBC NEWS 1:00
22:35:0000:35CADA116900FTHE FIFTH SEASONThe Fifth Season
22:35:0000:38CADA568500FLILY'S RESTARUANTLily's Restaruant
22:35:0000:30CADA102800FNORTHLAND CABLE CO.Northland Communications
22:35:0000:59COMVO289500NET SPOT B
22:40:0000:15CADA109900FSOUL CONNECTIONSSoul Connection
22:40:0000:01COMVO112100FZ-WEATHERZChannel Radio
22:40:0000:29ATWEAX00CZ-WX
22:40:0001:00COMDA101200FWKDYSHOPRNITEZ100FM Promo
22:40:0000:10COMVO100100FPM LNGBLK SWPZ100FM
22:41:0008:08112DA024259FSweet Emotion Medely [Live][Lyrics!!]Led Zeppelin/Aerosmith
22:44:0000:15COMVO110200FZ-PM TransitionZ100FM
22:48:0005:32104DA300216CCome AgainDamn Yankees
22:49:0007:32110DA038161FLove Like A ManTen Years After
22:52:0003:25112DA028918FVelvet CaveSilver Apples, The
*22:58:00COMVO107400F58:00 KZRO/CR Legal IDZ100FM
23:01:0003:59104DA289226FBack In BlackAC/DC
23:02:0001:01COMNG2896NBC TOH Net SpotCNN RADIO
23:05:0201:01COMNF2895NBC B SpotCNN RADIO
23:06:0006:00COMDALIVEI06:00 StopSet
23:06:0000:05COMVO109500FZLNR-STOPSETZ100FM
23:06:0001:00CADA102300FREDDING SUBARURedding Subaru
23:06:0001:00CADA104100FSISQ.COUNTY FIRE CHEIFSSisq. County Fire Cheifs
23:06:0001:00CADA102400FBROOKS AUTOMOTIVEBrooks Complete Automotive
23:06:0000:34CADA563400FANDY'S TRANSMISSIONSAndy's Transmissions
23:06:0000:60CADA102200FCOSCollege of the Siskiyous
23:06:0000:59COMVO289600NET SPOT A
23:06:0001:00COMDA101200FWKDYSHOPRNITEZ100FM Promo
23:06:0000:10COMVO100100FPM LNGBLK SWPZ100FM
23:10:0003:22103DA231913FWalk This WayAerosmith
23:14:0004:55105DA648223CI Got ID (Lyrics!!)Pearl Jam
23:18:0000:15COMVO110200FZ-PM TransitionZ100FM
23:19:0003:33104DA278224FDancing In The StreetVan Halen
23:23:0004:39107DA926133FChinatownThin Lizzy
23:26:0000:15COMVO110200FZ-PM TransitionZ100FM
23:27:0005:30112DA016943FLadyBeck, Bogart & Appice
23:30:0001:00COMNB2904CNN Net News 2CNN RADIO
23:31:0004:05110DA035306FSaving Grace [live]Bad Company Live
23:35:0006:00COMDALIVEI35:00 StopSet
23:35:0000:05COMVO109500FZLNR-STOPSETZ100FM
23:35:0000:59COMDA290400NBC NEWS 1:00
23:35:0000:30CADA116000FMT.SHASTA VAPEMt. Shasta Vape
23:35:0000:37CADA103100MARUTI INDIAN RESTAURANTMaruti Indian Restaurant
23:35:0000:35CADA102100FSTATE FARM INSURANCERuss Porterfield Insurance
23:35:0000:59COMVO289500NET SPOT B
23:35:0000:14COMVO207700FFALL TIMEZ100fm Promo
23:40:0000:13CADA573000FSHERLOCK MUSIC SHOPSherlock Music
23:40:0000:01COMVO112100FZ-WEATHERZChannel Radio
23:40:0000:29ATWEAX00CZ-WX
23:40:0001:00COMDA101200FWKDYSHOPRNITEZ100FM Promo
23:40:0000:10COMVO100100FPM LNGBLK SWPZ100FM
23:41:0015:32111DA017905FMy Generation [Live]Who, The
23:44:0000:15COMVO110200FZ-PM TransitionZ100FM
23:48:0007:39110DA043202FBest Of Times [live]Styx
23:52:0002:23110DA040509FHeard It On The XZZ Top
*23:58:00COMVO107300F58:00 KZRO/CR Legal IDshortZ100FM